sat.trackr.live / text

‹ back to catalog

STARLINK-3350

NORAD 51105 · 2022-005B

PAYLOAD ACTIVE UNKNOWN

§ Identity

Operator
Country
US
Launch date
2022-01-19
Launch site
AFETR
Launch vehicle
Mass (kg)
RCS (m²)

Purposes: comms

External: N2YO · Heavens-Above · Gunter

§ Orbital elements

Epoch: 2026-09-20T03:16:54.748992Z

Period
93.84 min
Inclination
53.1596°
Eccentricity
0.0001802
Mean motion
15.34545100 rev/d
Perigee alt
461.0 km
Apogee alt
463.5 km
Semi-major
6,840.4 km
B*
-8.6024e-4
RAAN
127.2356°
Arg perigee
73.5316°
Mean anomaly
286.5884°
Rev number
25,835

§ Raw data

STARLINK-33501 51105U 22005B   26263.13674478 -.00029464  00000+0 -86024-3 0  99992 51105  53.1596 127.2356 0001802  73.5316 286.5884 15.34545100258357

JSON: /api/v1/satellites/51105 · /tle

For live sub-satellite position, see the globe view (requires WebGL).

§ Visibility from observer

Set your observer location to see the next 7 days of passes ≥ 10°. The values pass through the URL so the page stays shareable.

No JS? Fill the form by hand. The geolocation button needs JavaScript.